Printer-friendly version

IAU Minor Planet Center

Minor Planet Center

MPEC 1994-D05: 1994 CJ1

The following Minor Planet Electronic Circular may be linked-to from your own Web pages, but must not otherwise be redistributed electronically.


Read MPEC 1994-D04 Read MPEC 1994-D06


M.P.E.C. 1994-D05                                Issued 1994 Feb. 19, 23:51 UT

     The Minor Planet Electronic Circulars contain information on unusual
         minor planets and routine data on comets.  They are published
   on behalf of Commission 20 of the International Astronomical Union by the
          Minor Planet Center, Smithsonian Astrophysical Observatory,
                          Cambridge, MA 02138, U.S.A.

          MARSDEN@CFA or WILLIAMS@CFA (.HARVARD.EDU, .SPAN or .BITNET)

                                   1994 CJ1

Additional observations:
     J94C01J  C1994 02 15.27292 09 12 07.21 +11 58 28.5          20.1 V      691
     J94C01J  C1994 02 15.28983 09 12 05.12 +11 58 40.8          20.0 V      691
     J94C01J  C1994 02 19.27354 09 04 23.31 +12 47 43.1          20.7 V      691
     J94C01J  C1994 02 19.28190 09 04 22.14 +12 47 52.0          20.2 V      691
     J94C01J  C1994 02 19.29116 09 04 21.05 +12 47 56.6          21.2 V      691

Observer details:
691 Steward Observatory, Kitt Peak.  Observer R. Jedicke.
    0.9-m Spacewatch Telescope.

Orbital elements:
1994 CJ1
Epoch 1994 Jan. 28.0 TT = JDT 2449380.5                 Marsden
M 293.77274              (2000.0)            P               Q
n   0.54194800     Peri.   64.85640     -0.54143121     +0.84072796
a   1.4899246      Node   172.35582     -0.78515477     -0.50334109
e   0.3255937      Incl.    2.30988     -0.30063970     -0.19956014
P   1.82           H    21.5          G   0.15
From 16 observations 1994 Feb. 10-19.

Ephemeris:
1994 CJ1                 a,e,i = 1.49, 0.33, 2                   q = 1.0048
Date    TT    R. A. (2000) Decl.     Delta      r     Elong.  Phase     V
1994 02 17    09 08.81   +12 19.5    0.369    1.350   167.2     9.4    20.6
1994 02 22    08 59.06   +13 22.8    0.353    1.326   159.8    14.9    20.7
1994 02 27    08 49.48   +14 28.1    0.340    1.302   152.4    20.6    20.8
1994 03 04    08 40.54   +15 33.0    0.331    1.278   145.1    26.4    20.8
1994 03 09    08 32.71   +16 35.2    0.325    1.254   138.0    32.0    20.9
1994 03 14    08 26.38   +17 33.0    0.321    1.230   131.4    37.3    21.0
1994 03 19    08 21.83   +18 25.4    0.318    1.207   125.2    42.4    21.1
1994 03 24    08 19.18   +19 11.9    0.315    1.184   119.4    47.2    21.1
1994 03 29    08 18.44   +19 52.8    0.313    1.162   114.1    51.6    21.2
1994 04 03    08 19.54   +20 28.1    0.310    1.141   109.3    55.8    21.3
1994 04 08    08 22.44   +20 58.1    0.307    1.120   104.9    59.7    21.3
1994 04 13    08 27.05   +21 22.9    0.303    1.101   101.0    63.4    21.4
1994 04 18    08 33.28   +21 42.7    0.297    1.083    97.4    66.8    21.4
1994 04 23    08 41.02   +21 57.8    0.291    1.067    94.2    70.0    21.4
1994 04 28    08 50.17   +22 08.4    0.283    1.052    91.3    73.1    21.4

Brian G. Marsden                                              M.P.E.C. 1994-D05

Read MPEC 1994-D04 Read MPEC 1994-D06


Our Web policy. Index to the CBAT/MPC/ICQ pages.


Valid HTML 4.01!